Time,TemperatureF,DewpointF,PressureIn,WindDirection,WindDirectionDegrees,WindSpeedMPH,WindSpeedGustMPH,Humidity,HourlyPrecipIn,Conditions,Clouds,dailyrainin,SoftwareType,DateUTC
2013-03-19 00:06:00,60.2,16.0,29.82,West,281,0.0,4.0,18,0.00,,,0.00,weatherlink.com 1.10,2013-03-19 05:06:00,
2013-03-19 00:21:00,60.1,16.0,29.82,West,281,0.0,1.0,18,0.00,,,0.00,weatherlink.com 1.10,2013-03-19 05:21:00,
2013-03-19 01:21:00,59.5,16.0,29.82,West,281,0.0,2.0,18,0.00,,,0.00,weatherlink.com 1.10,2013-03-19 06:21:00,
2013-03-19 01:36:00,58.8,15.0,29.82,West,281,1.0,3.0,18,0.00,,,0.00,weatherlink.com 1.10,2013-03-19 06:36:00,
2013-03-19 02:06:00,58.2,16.0,29.82,West,281,1.0,2.0,19,0.00,,,0.00,weatherlink.com 1.10,2013-03-19 07:06:00,
2013-03-19 02:21:00,56.7,16.0,29.82,West,281,1.0,2.0,20,0.00,,,0.00,weatherlink.com 1.10,2013-03-19 07:21:00,
2013-03-19 02:36:00,58.6,15.0,29.82,West,281,1.0,2.0,18,0.00,,,0.00,weatherlink.com 1.10,2013-03-19 07:36:00,
2013-03-19 02:51:00,57.7,15.0,29.82,West,281,0.0,4.0,19,0.00,,,0.00,weatherlink.com 1.10,2013-03-19 07:51:00,
2013-03-19 03:06:00,57.9,16.0,29.82,West,281,1.0,3.0,19,0.00,,,0.00,weatherlink.com 1.10,2013-03-19 08:06:00,
2013-03-19 03:21:00,60.0,15.0,29.81,West,281,0.0,1.0,17,0.00,,,0.00,weatherlink.com 1.10,2013-03-19 08:21:00,
2013-03-19 03:36:00,57.9,16.0,29.81,West,281,0.0,2.0,19,0.00,,,0.00,weatherlink.com 1.10,2013-03-19 08:36:00,
2013-03-19 03:51:00,57.5,15.0,29.81,West,281,0.0,2.0,19,0.00,,,0.00,weatherlink.com 1.10,2013-03-19 08:51:00,
2013-03-19 04:06:00,58.5,15.0,29.81,West,281,0.0,2.0,18,0.00,,,0.00,weatherlink.com 1.10,2013-03-19 09:06:00,
2013-03-19 04:36:00,58.5,15.0,29.81,West,281,0.0,4.0,18,0.00,,,0.00,weatherlink.com 1.10,2013-03-19 09:36:00,
2013-03-19 04:51:00,57.3,14.0,29.81,West,281,0.0,3.0,18,0.00,,,0.00,weatherlink.com 1.10,2013-03-19 09:51:00,
2013-03-19 05:06:00,57.1,15.0,29.81,West,281,0.0,3.0,19,0.00,,,0.00,weatherlink.com 1.10,2013-03-19 10:06:00,
2013-03-19 05:21:00,56.2,15.0,29.81,West,281,1.0,3.0,20,0.00,,,0.00,weatherlink.com 1.10,2013-03-19 10:21:00,
2013-03-19 05:36:00,56.4,16.0,29.80,West,281,0.0,4.0,20,0.00,,,0.00,weatherlink.com 1.10,2013-03-19 10:36:00,
2013-03-19 05:51:00,56.5,16.0,29.80,West,281,0.0,4.0,20,0.00,,,0.00,weatherlink.com 1.10,2013-03-19 10:51:00,
2013-03-19 06:06:00,56.6,16.0,29.80,West,281,0.0,1.0,20,0.00,,,0.00,weatherlink.com 1.10,2013-03-19 11:06:00,
2013-03-19 06:21:00,56.7,16.0,29.81,West,281,0.0,1.0,20,0.00,,,0.00,weatherlink.com 1.10,2013-03-19 11:21:00,
2013-03-19 06:36:00,57.0,16.0,29.81,West,281,0.0,2.0,20,0.00,,,0.00,weatherlink.com 1.10,2013-03-19 11:36:00,
2013-03-19 07:06:00,52.8,16.0,29.82,West,281,0.0,1.0,23,0.00,,,0.00,weatherlink.com 1.10,2013-03-19 12:06:00,
2013-03-19 07:21:00,54.8,16.0,29.82,West,281,0.0,2.0,22,0.00,,,0.00,weatherlink.com 1.10,2013-03-19 12:21:00,
2013-03-19 07:36:00,55.9,15.0,29.82,West,281,0.0,1.0,20,0.00,,,0.00,weatherlink.com 1.10,2013-03-19 12:36:00,
2013-03-19 07:51:00,53.9,16.0,29.83,West,281,1.0,1.0,22,0.00,,,0.00,weatherlink.com 1.10,2013-03-19 12:51:00,
2013-03-19 08:06:00,54.6,16.0,29.83,West,281,0.0,1.0,22,0.00,,,0.00,weatherlink.com 1.10,2013-03-19 13:06:00,
2013-03-19 08:21:00,53.5,16.0,29.84,West,281,0.0,4.0,23,0.00,,,0.00,weatherlink.com 1.10,2013-03-19 13:21:00,
2013-03-19 08:36:00,56.0,15.0,29.85,West,281,0.0,4.0,20,0.00,,,0.00,weatherlink.com 1.10,2013-03-19 13:36:00,
2013-03-19 08:51:00,57.2,16.0,29.85,West,281,2.0,2.0,20,0.00,,,0.00,weatherlink.com 1.10,2013-03-19 13:51:00,
2013-03-19 09:06:00,58.3,16.0,29.86,West,281,0.0,3.0,19,0.00,,,0.00,weatherlink.com 1.10,2013-03-19 14:06:00,
2013-03-19 09:22:00,59.9,16.0,29.86,West,281,0.0,3.0,18,0.00,,,0.00,weatherlink.com 1.10,2013-03-19 14:22:00,
2013-03-19 09:37:00,62.0,16.0,29.85,West,281,0.0,4.0,17,0.00,,,0.00,weatherlink.com 1.10,2013-03-19 14:37:00,
2013-03-19 09:52:00,64.7,19.0,29.85,West,281,0.0,2.0,17,0.00,,,0.00,weatherlink.com 1.10,2013-03-19 14:52:00,
2013-03-19 10:07:00,66.8,19.0,29.85,West,281,0.0,1.0,16,0.00,,,0.00,weatherlink.com 1.10,2013-03-19 15:07:00,
2013-03-19 10:22:00,68.8,18.0,29.85,West,281,0.0,4.0,14,0.00,,,0.00,weatherlink.com 1.10,2013-03-19 15:22:00,
2013-03-19 10:37:00,69.3,16.0,29.85,West,281,1.0,3.0,13,0.00,,,0.00,weatherlink.com 1.10,2013-03-19 15:37:00,
2013-03-19 10:52:00,70.1,17.0,29.84,West,281,1.0,7.0,13,0.00,,,0.00,weatherlink.com 1.10,2013-03-19 15:52:00,
2013-03-19 11:07:00,71.2,16.0,29.84,West,281,0.0,5.0,12,0.00,,,0.00,weatherlink.com 1.10,2013-03-19 16:07:00,
2013-03-19 11:22:00,72.2,17.0,29.84,West,281,3.0,8.0,12,0.00,,,0.00,weatherlink.com 1.10,2013-03-19 16:22:00,
2013-03-19 11:37:00,72.4,17.0,29.83,West,281,1.0,5.0,12,0.00,,,0.00,weatherlink.com 1.10,2013-03-19 16:37:00,
2013-03-19 11:52:00,73.9,16.0,29.83,West,281,0.0,6.0,11,0.00,,,0.00,weatherlink.com 1.10,2013-03-19 16:52:00,
2013-03-19 12:07:00,74.5,14.0,29.82,West,271,5.0,10.0,10,0.00,,,0.00,weatherlink.com 1.10,2013-03-19 17:07:00,
2013-03-19 12:22:00,74.7,15.0,29.82,West,271,2.0,11.0,10,0.00,,,0.00,weatherlink.com 1.10,2013-03-19 17:22:00,
2013-03-19 12:37:00,75.1,12.0,29.82,West,277,0.0,11.0,9,0.00,,,0.00,weatherlink.com 1.10,2013-03-19 17:37:00,
2013-03-19 12:52:00,75.4,15.0,29.82,West,269,7.0,14.0,10,0.00,,,0.00,weatherlink.com 1.10,2013-03-19 17:52:00,
2013-03-19 13:07:00,75.3,15.0,29.81,West,261,10.0,11.0,10,0.00,,,0.00,weatherlink.com 1.10,2013-03-19 18:07:00,
2013-03-19 13:22:00,75.8,13.0,29.81,WSW,255,6.0,10.0,9,0.00,,,0.00,weatherlink.com 1.10,2013-03-19 18:22:00,
2013-03-19 13:37:00,76.0,13.0,29.81,West,261,2.0,11.0,9,0.00,,,0.00,weatherlink.com 1.10,2013-03-19 18:37:00,
2013-03-19 13:52:00,77.4,14.0,29.80,West,273,4.0,13.0,9,0.00,,,0.00,weatherlink.com 1.10,2013-03-19 18:52:00,
2013-03-19 14:07:00,77.5,14.0,29.78,West,265,6.0,14.0,9,0.00,,,0.00,weatherlink.com 1.10,2013-03-19 19:07:00,
2013-03-19 14:22:00,77.3,14.0,29.78,West,275,5.0,11.0,9,0.00,,,0.00,weatherlink.com 1.10,2013-03-19 19:22:00,
2013-03-19 14:38:00,79.2,13.0,29.77,West,265,1.0,12.0,8,0.00,,,0.00,weatherlink.com 1.10,2013-03-19 19:38:00,
2013-03-19 14:54:00,78.2,12.0,29.76,West,259,6.0,11.0,8,0.00,,,0.00,weatherlink.com 1.10,2013-03-19 19:54:00,
2013-03-19 15:08:00,79.9,13.0,29.75,WSW,258,7.0,12.0,8,0.00,,,0.00,weatherlink.com 1.10,2013-03-19 20:08:00,
2013-03-19 15:23:00,79.5,16.0,29.74,WSW,254,3.0,10.0,9,0.00,,,0.00,weatherlink.com 1.10,2013-03-19 20:23:00,
2013-03-19 15:38:00,78.1,12.0,29.73,West,264,3.0,10.0,8,0.00,,,0.00,weatherlink.com 1.10,2013-03-19 20:38:00,
2013-03-19 15:53:00,79.0,13.0,29.73,West,265,2.0,12.0,8,0.00,,,0.00,weatherlink.com 1.10,2013-03-19 20:53:00,
2013-03-19 16:08:00,77.8,14.0,29.72,SW,228,4.0,8.0,9,0.00,,,0.00,weatherlink.com 1.10,2013-03-19 21:08:00,
2013-03-19 16:23:00,80.0,7.0,29.72,West,281,9.0,14.0,6,0.00,,,0.00,weatherlink.com 1.10,2013-03-19 21:23:00,
2013-03-19 16:38:00,79.7,7.0,29.72,WNW,284,10.0,20.0,6,0.00,,,0.00,weatherlink.com 1.10,2013-03-19 21:38:00,
2013-03-19 16:53:00,80.9,4.0,29.71,WSW,242,12.0,18.0,5,0.00,,,0.00,weatherlink.com 1.10,2013-03-19 21:53:00,
2013-03-19 17:08:00,77.5,5.0,29.73,WNW,285,12.0,20.0,6,0.00,,,0.00,weatherlink.com 1.10,2013-03-19 22:08:00,
2013-03-19 17:23:00,77.3,1.0,29.73,West,267,16.0,16.0,5,0.00,,,0.00,weatherlink.com 1.10,2013-03-19 22:23:00,
2013-03-19 17:38:00,76.0,4.0,29.74,West,268,7.0,13.0,6,0.00,,,0.00,weatherlink.com 1.10,2013-03-19 22:38:00,
2013-03-19 17:53:00,76.0,7.0,29.74,WNW,283,7.0,13.0,7,0.00,,,0.00,weatherlink.com 1.10,2013-03-19 22:53:00,
2013-03-19 18:08:00,75.2,7.0,29.74,West,279,5.0,14.0,7,0.00,,,0.00,weatherlink.com 1.10,2013-03-19 23:08:00,
2013-03-19 18:23:00,75.3,7.0,29.74,WNW,284,3.0,10.0,7,0.00,,,0.00,weatherlink.com 1.10,2013-03-19 23:23:00,
2013-03-19 18:38:00,75.6,7.0,29.74,West,279,6.0,12.0,7,0.00,,,0.00,weatherlink.com 1.10,2013-03-19 23:38:00,
2013-03-19 18:53:00,76.1,4.0,29.74,WSW,243,16.0,16.0,6,0.00,,,0.00,weatherlink.com 1.10,2013-03-19 23:53:00,
2013-03-19 19:08:00,76.1,10.0,29.74,WNW,288,4.0,9.0,8,0.00,,,0.00,weatherlink.com 1.10,2013-03-20 00:08:00,
2013-03-19 19:23:00,75.4,7.0,29.75,NW,306,5.0,9.0,7,0.00,,,0.00,weatherlink.com 1.10,2013-03-20 00:23:00,
2013-03-19 19:38:00,74.5,9.0,29.75,WNW,294,2.0,6.0,8,0.00,,,0.00,weatherlink.com 1.10,2013-03-20 00:38:00,
2013-03-19 19:53:00,72.2,10.0,29.75,WNW,294,1.0,7.0,9,0.00,,,0.00,weatherlink.com 1.10,2013-03-20 00:53:00,
2013-03-19 20:08:00,70.4,9.0,29.76,WNW,294,2.0,5.0,9,0.00,,,0.00,weatherlink.com 1.10,2013-03-20 01:08:00,
2013-03-19 20:23:00,69.6,11.0,29.76,WNW,294,0.0,2.0,10,0.00,,,0.00,weatherlink.com 1.10,2013-03-20 01:23:00,
2013-03-19 20:38:00,67.7,11.0,29.77,WNW,294,0.0,1.0,11,0.00,,,0.00,weatherlink.com 1.10,2013-03-20 01:38:00,
2013-03-19 20:53:00,67.6,11.0,29.78,WNW,294,2.0,4.0,11,0.00,,,0.00,weatherlink.com 1.10,2013-03-20 01:53:00,
2013-03-19 21:08:00,66.8,10.0,29.80,WNW,294,3.0,5.0,11,0.00,,,0.00,weatherlink.com 1.10,2013-03-20 02:08:00,
2013-03-19 21:23:00,64.2,12.0,29.81,WNW,294,0.0,2.0,13,0.00,,,0.00,weatherlink.com 1.10,2013-03-20 02:23:00,
2013-03-19 21:38:00,63.9,12.0,29.81,WNW,294,2.0,3.0,13,0.00,,,0.00,weatherlink.com 1.10,2013-03-20 02:38:00,
2013-03-19 21:53:00,63.5,12.0,29.82,WNW,294,0.0,4.0,13,0.00,,,0.00,weatherlink.com 1.10,2013-03-20 02:53:00,
2013-03-19 22:08:00,63.2,13.0,29.83,WNW,294,4.0,4.0,14,0.00,,,0.00,weatherlink.com 1.10,2013-03-20 03:08:00,
2013-03-19 22:23:00,64.7,13.0,29.84,WNW,294,1.0,5.0,13,0.00,,,0.00,weatherlink.com 1.10,2013-03-20 03:23:00,
2013-03-19 22:38:00,64.7,13.0,29.84,WNW,294,0.0,3.0,13,0.00,,,0.00,weatherlink.com 1.10,2013-03-20 03:38:00,
2013-03-19 22:53:00,64.9,13.0,29.85,WNW,294,1.0,5.0,13,0.00,,,0.00,weatherlink.com 1.10,2013-03-20 03:53:00,
2013-03-19 23:08:00,63.9,14.0,29.86,WNW,294,0.0,3.0,14,0.00,,,0.00,weatherlink.com 1.10,2013-03-20 04:08:00,
2013-03-19 23:23:00,62.8,23.0,29.88,NW,321,6.0,16.0,22,0.00,,,0.00,weatherlink.com 1.10,2013-03-20 04:23:00,
2013-03-19 23:38:00,57.6,27.0,29.88,NW,320,5.0,9.0,31,0.00,,,0.00,weatherlink.com 1.10,2013-03-20 04:38:00,
2013-03-19 23:53:00,56.8,29.0,29.89,NW,326,4.0,10.0,34,0.00,,,0.00,weatherlink.com 1.10,2013-03-20 04:53:00,